Regional Weather Roundup
Issued by NWS

Home | Current Version | Previous Version | Graphics & Text | Print | Product List | Glossary On
Versions: 1 2 3 4 5 6 7 8 9 10 11 12 13 14 15 16 17 18 19 20 21 22 23 24 25 26 27 28 29 30 31 32 33 34 35 36 37 38 39 40 41 42 43 44 45 46 47 48 49 50
000
ASUS45 KTFX 030310
RWRMT
MONTANA REGIONAL WEATHER ROUNDUP
NATIONAL WEATHER SERVICE GREAT FALLS MT
900 PM MDT SUN AUG 02 2015

NOTE: "FAIR" INDICATES FEW OR NO CLOUDS BELOW 12000 FEET WITH NO
SIGNIFICANT WEATHER AND/OR OBSTRUCTIONS TO VISIBILITY.

MTZ001>007-043-030400-
WEST OF THE DIVIDE

CITY           SKY/WX    TMP DP  RH WIND       PRES   REMARKS
KALISPELL      CLEAR     79  36  21 N6        29.86R
MISSOULA       CLEAR     84  30  14 VRB3      29.87S
BUTTE          PTCLDY    80  31  16 S9        30.06R
MULLAN PASS    CLEAR     74  21  13 NW6       30.12R
DEER LODGE       N/A     72  37  28 CALM      30.03S
EUREKA           N/A     84  30  14 CALM      29.84R
HAMILTON         N/A     73  50  43 SE3       29.90R
LIBBY            N/A     81  28  15 SE3       29.85R
RONAN            N/A     82  40  22 N3        29.93S
$$

MTZ008-052>055-030400-
SOUTHWEST MONTANA

CITY           SKY/WX    TMP DP  RH WIND       PRES   REMARKS
BOZEMAN        PTCLDY    70  46  42 S5        29.99S
DILLON         PTCLDY    71  39  31 E9        30.00S
W YELLOWSTONE  PTCLDY    68  39  34 NE3       30.15R
$$

MTZ009-010-012-014-046-048-049-054-030400-
EAST SLOPES AND CENTRAL MONTANA

CITY           SKY/WX    TMP DP  RH WIND       PRES   REMARKS
CUT BANK       CLEAR     77  45  32 E12       29.96S
GREAT FALLS    CLEAR     77  46  33 E9        29.95S
MALMSTROM AFB  CLEAR     73  50  43 E8        29.95R
HELENA         CLEAR     84  39  20 S6        29.94R
$$

MTZ011-013-016-021-045-047-050-051-030400-
NORTH CENTRAL MONTANA

CITY           SKY/WX    TMP DP  RH WIND       PRES   REMARKS
HAVRE          CLEAR     75  53  46 E13       29.94S
LEWISTOWN      CLEAR     74  47  38 E9        30.04R
CHINOOK          N/A     73  55  53 E7        29.96S
FORT BENTON      N/A     79  48  34 NE5       29.93S
$$

MTZ017>020-022>027-061-062-030400-
NORTHEAST MONTANA

CITY           SKY/WX    TMP DP  RH WIND       PRES   REMARKS
GLASGOW        CLEAR     70  47  43 NE10      29.99R
JORDAN           N/A     75  48  38 NE9       30.00R
SIDNEY         CLEAR    N/A N/A N/A N8        29.98R
WOLF POINT     CLEAR     73  46  38 NE7       30.00R
MALTA            N/A     74  56  53 CALM      29.96R
PLENTYWOOD       N/A     64  50  59 N6        30.01R
POPLAR           N/A     68  50  52 N3        30.01R
$$

MTZ028>42-056>058-030400-
SOUTHCENTRAL AND SOUTHEAST MONTANA

CITY           SKY/WX    TMP DP  RH WIND       PRES   REMARKS
BAKER          CLEAR     67  48  50 E5        30.03R
BILLINGS       PTCLDY    79  42  26 NE8       30.00R
LIVINGSTON     CLEAR     79  40  24 E12       30.01R
MILES CITY     PTCLDY    76  49  38 E8        29.99R
FORSYTH          N/A     73  48  40 E5        29.98R
LAUREL           N/A     76  39  26 N2        29.99R
$$

REGIONAL REPORTS...DAKOTAS

CITY           SKY/WX    TMP DP  RH WIND       PRES   REMARKS
WILLISTON      CLEAR     70  47  43 N8        29.99R
MINOT          CLEAR     66  48  52 NW10      29.94R
DICKINSON      CLEAR     65  49  56 NE5       29.99R
CROSBY         FAIR      57  54  88 NW7       30.00R
BISMARCK       CLEAR     71  51  49 N5        29.95R
GRAND FORKS    CLEAR     59  50  72 W8        29.84R
FARGO          CLEAR     64  52  64 W7        29.85R
BUFFALO SD       N/A     70  51  51 NE9       29.96R
RAPID CITY     CLEAR     70  54  56 NE10      30.01R
$$

REGIONAL REPORTS...WYOMING/IDAHO/WASHINGTON

CITY           SKY/WX    TMP DP  RH WIND       PRES   REMARKS
GILLETTE       CLEAR     73  48  41 E6        30.05R
SHERIDAN       CLEAR     72  44  36 SE6       30.01R
BUFFALO WY     CLEAR     70  43  37 W9        30.09S
CODY           CLEAR     75  39  27 NW6       30.07S
YELLOWSTONE LA   N/A     59  40  49 CALM      30.25S
IDAHO FALLS    MOCLDY    76  47  35 CALM      29.95S
SALMON         PTCLDY    82  46  28 S3        29.85R
BOISE          CLOUDY    93  46  19 N3        29.77S
SPOKANE        PTCLDY    90  19   7 W3        29.83R
$$

REGIONAL REPORTS...ALBERTA

CITY           SKY/WX    TMP DP  RH WIND       PRES   REMARKS
EDMONTON       CLEAR     68  55  64 SE6       29.94R
CALGARY        MOCLDY    73  54  49 SE12G17   29.96S
LETHBRIDGE     MOCLDY    72  57  60 E9        29.92S
MEDICINE HAT   PTCLDY    77  50  38 E13       29.94S
WATERTON GATE    N/A     68  55  64 CALM        N/A
CARDSTON         N/A     72  54  53 SE3         N/A
MILK RIVER       N/A     68  46  45 E7          N/A
ONEFOUR          N/A     70  48  46 E12         N/A
$$

REGIONAL REPORTS...SASKATCHEWAN

CITY           SKY/WX    TMP DP  RH WIND       PRES   REMARKS
SWIFT CURRENT  MOCLDY    66  55  68 SE5       30.02R
REGINA         PTCLDY    61  52  72 N5        30.00R
SASKATOON      PTCLDY    66  55  68 NW5       29.99R
CYPRESS HILLS    N/A     63  50  63 E7          N/A
VAL MARIE        N/A     64  52  63 E9          N/A
ROCKGLEN         N/A     63  50  63 N2          N/A
$$


USA.gov is the U.S. government's official web portal to all federal, state and local government web resources and services.